This is the latest recevied weather packets stored in our database for station/object K2ATL. If no packets are shown the sender has not sent any weather packets the latest 10 day(s).
| Time | Temp. | Humidity | Pressure | Rain* | Wind** | Luminosity | Snow |
|---|---|---|---|---|---|---|---|
| 1788097971 | 21.67° C | 94% | 1109.4 hPa | 0 mm | - | 133 W/m² | - |
| 1788097667 | 21.67° C | 94% | 1109.3 hPa | 0 mm | - | 65 W/m² | - |
| 1788097367 | 21.67° C | 95% | 1109.3 hPa | 0 mm | - | 79 W/m² | - |
| 1788097062 | 21.67° C | 95% | 1109.3 hPa | 0 mm | - | 58 W/m² | - |
| 1788096758 | 21.11° C | 96% | 1109.3 hPa | 0 mm | - | 62 W/m² | - |
| 1788096453 | 21.11° C | 96% | 1109.4 hPa | 0 mm | - | 56 W/m² | - |
| 1788096149 | 21.11° C | 96% | 1109.5 hPa | 0 mm | - | 50 W/m² | - |
| 1788095848 | 21.11° C | 96% | 1109.3 hPa | 0 mm | - | 53 W/m² | - |
| 1788095538 | 21.11° C | 97% | 1109.3 hPa | 0 mm | - | 65 W/m² | - |
| 1788095233 | 21.11° C | 97% | 1109.3 hPa | 0 mm | - | 55 W/m² | - |
| 1788094932 | 20.56° C | 97% | 1109.3 hPa | 0 mm | - | 71 W/m² | - |
| 1788094632 | 21.11° C | 97% | 1109.4 hPa | 0 mm | - | 54 W/m² | - |
| 1788094327 | 21.11° C | 97% | 1109.4 hPa | 0 mm | - | 42 W/m² | - |
| 1788094024 | 21.11° C | 97% | 1109 hPa | 0 mm | - | 47 W/m² | - |
| 1788093721 | 21.11° C | 97% | 1108.9 hPa | 0 mm | - | 37 W/m² | - |
| 1788093417 | 21.11° C | 97% | 1109 hPa | 0 mm | - | 39 W/m² | - |
| 1788093113 | 21.11° C | 97% | 1108.9 hPa | 0 mm | - | 36 W/m² | - |
| 1788092810 | 21.11° C | 97% | 1108.9 hPa | 0 mm | - | 30 W/m² | - |
| 1788092505 | 21.11° C | 96% | 1108.7 hPa | 0 mm | - | 29 W/m² | - |
| 1788092201 | 21.11° C | 96% | 1108.7 hPa | 0 mm | - | 28 W/m² | - |
| 1788091900 | 21.67° C | 95% | 1108.7 hPa | 0 mm | - | 26 W/m² | - |
| 1788091595 | 21.11° C | 94% | 1108.6 hPa | 0 mm | - | 24 W/m² | - |
| 1788091291 | 21.11° C | 95% | 1108.5 hPa | 0 mm | - | 23 W/m² | - |
| 1788090987 | 21.11° C | 95% | 1108.3 hPa | 0 mm | - | 21 W/m² | - |
| 1788090682 | 21.11° C | 95% | 1108.4 hPa | 0 mm | - | 20 W/m² | - |
* Rain latest hour (hover to see other rain measurements)
** Current wind speed in m/s (hover to see current wind gust speed)